Location: Lake Lucerne
(45.5315°N, 88.8489°W)
Time: 19:48:27
(UTC-05:00)

ARIANE 6 FM1 Upper Stage - Pass Details

Date: 22 September 2024
Orbit: 563 x 594 km, 62.0° (Epoch: 09 October)

Event Time Altitude Azimuth Distance (km) Brightness Sun altitude
Exits shadow 05:49:03 14° 251° (WSW) 1,697 4.5 -10.2°
Maximum altitude 05:49:21 14° 247° (WSW) 1,693 4.5 -10.2°
Drops below altitude 10° 05:51:34 10° 216° (SW) 1,928 5.0 -9.8°
Sets 05:54:47 0° 190° (S) 2,822 6.0 -9.3°
